"2016-05-22 00:00:00",1654491,4.384,218.5,6.206,0.294,23.66,109.6008,23.87,24.94,18.58,0,111.4,12.98,24.70,180.5
"2016-05-22 00:00:30",1654492,4.903,213.5,3.877,0.326,23.54,109.5979,23.86,24.92,20.42,0,111.4,12.99,24.70,175.5
"2016-05-22 00:01:00",1654493,5.281,212.4,7.477,0.31,23.8,109.6016,23.87,24.93,19.46,0,111.4,12.99,24.71,174.4
"2016-05-22 00:01:30",1654494,5.164,207.6,5.853,0.291,23.93,109.6035,23.88,24.9,15.99,0,111.4,12.99,24.71,169.6
"2016-05-22 00:02:00",1654495,5.573,213.8,8.09,0.462,23.6,109.6143,23.9,24.91,17.41,0,111.4,12.99,24.74,175.8
"2016-05-22 00:02:30",1654496,5.565,208.1,11.65,0.756,23.6,109.6182,23.91,24.91,20.09,0,111.4,12.99,24.75,170.1
"2016-05-22 00:03:00",1654497,5.7,220.7,5.923,0.348,23.46,109.6213,23.92,24.9,20.82,0,111.4,12.99,24.76,182.7
"2016-05-22 00:03:30",1654498,4.6,218.7,10.04,0.511,23.28,109.6231,23.93,24.92,22.68,0,111.4,12.99,24.76,180.7
"2016-05-22 00:04:00",1654499,4.386,207.5,9.99,0.599,23.31,109.625,23.93,24.92,23.58,0,111.4,12.99,24.77,169.5
"2016-05-22 00:04:30",1654500,3.645,223.5,7.887,0.341,23.16,109.6284,23.94,24.92,25.51,0,111.4,12.99,24.78,185.5
"2016-05-22 00:05:00",1654501,3.071,213.9,9.09,0.586,23.31,109.6293,23.94,24.91,26,0,111.4,12.99,24.78,175.9
"2016-05-22 00:05:30",1654502,3.865,214.8,6.637,0.647,23.42,109.6254,23.93,24.9,26.15,0,111.4,12.99,24.77,176.8
"2016-05-22 00:06:00",1654503,3.861,202.7,10.13,0.597,23.57,109.6069,23.88,24.89,24.71,0,111.4,12.99,24.72,164.7
"2016-05-22 00:06:30",1654504,3.883,197.7,4.01,0.276,23.64,109.5999,23.87,24.87,23.97,0,111.4,12.99,24.70,159.7
"2016-05-22 00:07:00",1654505,3.398,207.4,7.34,0.394,23.39,109.596,23.86,24.86,25.75,0,111.4,12.99,24.69,169.4
"2016-05-22 00:07:30",1654506,3.208,221.9,5.998,0.284,23.43,109.596,23.86,24.84,27.58,0,111.4,12.99,24.69,183.9
"2016-05-22 00:08:00",1654507,3.015,229.8,4.457,0.334,23.43,109.596,23.86,24.83,26.68,0,111.4,12.99,24.69,191.8
"2016-05-22 00:08:30",1654508,3.417,222.7,5.424,0.446,23.62,109.596,23.86,24.84,26.98,0,111.4,12.99,24.69,184.7
"2016-05-22 00:09:00",1654509,2.356,210.3,11.42,0.411,23.63,109.587,23.83,24.84,25.84,0,111.3,12.99,24.67,172.3
"2016-05-22 00:09:30",1654510,1.893,208,8.31,0.818,23.59,109.5685,23.79,24.83,26.08,0,111.4,12.99,24.62,170.0
"2016-05-22 00:10:00",1654511,3.886,204.4,4.018,0.314,23.71,109.5626,23.77,24.81,25.13,0,111.3,12.99,24.61,166.4
"2016-05-22 00:10:30",1654512,3.633,198.4,6.106,0.308,23.69,109.5623,23.77,24.8,25.14,0,111.3,12.99,24.60,160.4
"2016-05-22 00:11:00",1654513,3.889,193.7,3.942,0.262,23.79,109.5623,23.77,24.8,24.61,0,111.3,12.99,24.60,155.7
"2016-05-22 00:11:30",1654514,3.222,207.7,3.719,0.295,23.74,109.5623,23.77,24.8,23.87,0,111.3,12.99,24.60,169.7
"2016-05-22 00:12:00",1654515,2.903,212.4,5.876,0.319,23.5,109.562,23.77,24.78,25.73,0,111.3,12.99,24.60,174.4
"2016-05-22 00:12:30",1654516,2.227,224.3,7.911,0.322,23.48,109.5482,23.73,24.79,27.04,0,111.3,12.99,24.57,186.3
"2016-05-22 00:13:00",1654517,2.219,230.1,4.222,0.273,23.52,109.5441,23.72,24.79,27.18,0,111.3,12.99,24.56,192.1
"2016-05-22 00:13:30",1654518,2.333,228.4,9.57,0.309,23.42,109.5426,23.72,24.75,28.09,0,111.3,12.99,24.55,190.4
"2016-05-22 00:14:00",1654519,2.712,217.3,9.56,0.574,23.68,109.521,23.66,24.73,27.48,0,111.3,12.99,24.50,179.3
"2016-05-22 00:14:30",1654520,3.808,212.7,10.12,0.553,23.95,109.5211,23.66,24.7,20.7,0,111.3,12.99,24.50,174.7
"2016-05-22 00:15:00",1654521,4.08,213.6,6.876,0.797,23.79,109.5238,23.67,24.65,21.14,0,111.3,12.99,24.51,175.6
"2016-05-22 00:15:30",1654522,4.385,211.7,8.41,0.359,23.7,109.5247,23.67,24.65,22,0,111.3,12.99,24.51,173.7
"2016-05-22 00:16:00",1654523,3.115,226.8,9.89,0.842,23.58,109.5152,23.65,24.64,22.89,0,111.3,12.99,24.48,188.8
"2016-05-22 00:16:30",1654524,3.12,211.4,6.075,0.346,23.71,109.5004,23.61,24.63,21.38,0,111.3,12.99,24.45,173.4
"2016-05-22 00:17:00",1654525,3.542,204.6,3.664,0.578,23.57,109.4975,23.6,24.61,21.51,0,111.3,12.99,24.44,166.6
"2016-05-22 00:17:30",1654526,3.325,209.2,7.825,0.574,23.56,109.4981,23.61,24.6,22.38,0,111.3,13,24.44,171.2
"2016-05-22 00:18:00",1654527,4.009,208.1,10.06,1.011,23.56,109.4981,23.61,24.58,23.69,0,111.3,13,24.44,170.1
"2016-05-22 00:18:30",1654528,4.904,217.9,4.607,0.579,23.59,109.4981,23.61,24.57,23.86,0,111.3,13,24.44,179.9
"2016-05-22 00:19:00",1654529,3.407,212.9,7.843,0.329,23.38,109.4956,23.6,24.59,25.72,0,111.3,13,24.43,174.9
"2016-05-22 00:19:30",1654530,2.523,222.8,4.798,0.253,23.14,109.4695,23.53,24.56,28.62,0,111.3,13.01,24.37,184.8
"2016-05-22 00:20:00",1654531,4.216,219.1,4.536,0.648,23.57,109.4645,23.52,24.54,26.39,0,111.3,13.01,24.35,181.1
"2016-05-22 00:20:30",1654532,4.878,218.5,2.589,0.376,23.68,109.4645,23.52,24.52,23.22,0,111.3,13.01,24.35,180.5
"2016-05-22 00:21:00",1654533,4.42,205.8,4.828,0.223,23.87,109.4645,23.52,24.5,21.71,0,111.3,13.01,24.35,167.8
"2016-05-22 00:21:30",1654534,4.69,206.1,6.604,0.349,23.98,109.4645,23.52,24.5,19.4,0,111.3,13.01,24.35,168.1
"2016-05-22 00:22:00",1654535,4.359,213.2,3.88,0.191,23.66,109.4645,23.52,24.5,20.46,0,111.3,13.01,24.35,175.2
"2016-05-22 00:22:30",1654536,4.369,220.5,3.624,0.361,23.59,109.4648,23.52,24.51,22.6,0,111.3,13.01,24.35,182.5
"2016-05-22 00:23:00",1654537,3.541,213.7,8.48,0.521,23.67,109.4654,23.52,24.5,22.98,0,111.3,13.01,24.36,175.7
"2016-05-22 00:23:30",1654538,4.088,214.7,5.85,0.56,23.78,109.4654,23.52,24.51,21.83,0,111.3,13.01,24.36,176.7
"2016-05-22 00:24:00",1654539,2.923,220.9,8.09,0.317,23.63,109.4666,23.52,24.52,22.19,0,111.3,13.01,24.36,182.9
"2016-05-22 00:24:30",1654540,2.146,221,9.7,0.413,23.19,109.467,23.53,24.52,27.5,0,111.3,13.01,24.36,183.0
"2016-05-22 00:25:00",1654541,3.235,211.2,9.27,0.824,23.73,109.4684,23.53,24.52,26.8,0,111.3,13.01,24.36,173.2
"2016-05-22 00:25:30",1654542,4.641,202.6,8.63,0.542,23.97,109.4703,23.53,24.51,20.69,0,111.3,13.01,24.37,164.6
"2016-05-22 00:26:00",1654543,4.351,197,5.156,0.328,24.02,109.4756,23.55,24.5,20.36,0,111.3,13.01,24.38,159.0
"2016-05-22 00:26:30",1654544,4.39,186.9,6.956,1.027,23.82,109.4771,23.55,24.5,20.63,0,111.3,13.01,24.39,148.9
"2016-05-22 00:27:00",1654545,2.897,196.5,17.83,0.457,23.48,109.4775,23.55,24.51,24.71,0,111.3,13.01,24.39,158.5
"2016-05-22 00:27:30",1654546,4.148,191.2,7.792,0.382,23.87,109.4759,23.55,24.5,22.54,0,111.3,13.01,24.38,153.2
"2016-05-22 00:28:00",1654547,3.63,198.1,8.33,0.295,23.75,109.4779,23.55,24.5,20.88,0,111.3,13.01,24.39,160.1
"2016-05-22 00:28:30",1654548,3.683,198.2,4.733,0.329,23.78,109.4745,23.54,24.5,21.21,0,111.2,13.01,24.38,160.2
"2016-05-22 00:29:00",1654549,3.793,182.9,12.65,0.507,23.65,109.4755,23.55,24.5,22.8,0,111.3,13.01,24.38,144.9
"2016-05-22 00:29:30",1654550,4.576,207.7,9.79,0.469,23.65,109.4741,23.54,24.5,23.37,0,111.2,13.01,24.38,169.7
"2016-05-22 00:30:00",1654551,3.802,193,7.757,0.456,23.58,109.473,23.54,24.5,24.3,0,111.2,13.01,24.37,155.0
"2016-05-22 00:30:30",1654552,4.268,190.5,6.918,0.455,23.76,109.4688,23.53,24.51,24.81,0,111.2,13.01,24.36,152.5
"2016-05-22 00:31:00",1654553,4.183,193.6,7.142,0.623,23.73,109.4677,23.53,24.51,24.01,0,111.2,13,24.36,155.6
"2016-05-22 00:31:30",1654554,3.738,203.7,7.024,0.344,23.57,109.4677,23.53,24.51,25.94,0,111.2,13,24.36,165.7
"2016-05-22 00:32:00",1654555,3.087,213.5,14.27,0.26,23.54,109.4677,23.53,24.51,27.53,0,111.2,13.01,24.36,175.5
"2016-05-22 00:32:30",1654556,2.745,205.5,3.535,0.305,23.76,109.4677,23.53,24.5,24.71,0,111.2,13,24.36,167.5
"2016-05-22 00:33:00",1654557,1.855,214.3,17.68,0.417,23.34,109.4671,23.53,24.51,27.22,0,111.2,13.01,24.36,176.3
"2016-05-22 00:33:30",1654558,1.732,207.6,25.29,0.449,23.4,109.4458,23.47,24.49,28.76,0,111.2,13.01,24.30,169.6
"2016-05-22 00:34:00",1654559,3.216,188.5,5.562,0.373,23.87,109.4365,23.45,24.48,25.44,0,111.2,13.01,24.28,150.5
"2016-05-22 00:34:30",1654560,3.02,196.6,7.789,0.376,23.67,109.434,23.44,24.48,24.92,0,111.2,13.01,24.27,158.6
"2016-05-22 00:35:00",1654561,2.873,194.2,4.678,0.43,23.82,109.434,23.44,24.48,25.57,0,111.2,13.01,24.27,156.2
"2016-05-22 00:35:30",1654562,3.51,199.5,3.007,0.244,24,109.434,23.44,24.46,22.37,0,111.2,13.01,24.27,161.5
"2016-05-22 00:36:00",1654563,4.315,201.2,2.298,0.205,24.15,109.4337,23.44,24.45,19.99,0,111.2,13.01,24.27,163.2
"2016-05-22 00:36:30",1654564,4.023,203.3,5.511,0.309,24.05,109.4222,23.41,24.45,18.59,0,111.2,13.02,24.24,165.3
"2016-05-22 00:37:00",1654565,4.182,200,4.534,0.248,24.14,109.4119,23.38,24.43,19.2,0,111.2,13.01,24.22,162.0
"2016-05-22 00:37:30",1654566,4.381,197.6,2.681,0.305,24.13,109.41,23.38,24.42,18.36,0,111.2,13.02,24.21,159.6
"2016-05-22 00:38:00",1654567,4.095,203.2,4.387,0.353,24.03,109.4122,23.38,24.39,17.81,0,111.2,13.02,24.22,165.2
"2016-05-22 00:38:30",1654568,3.88,196.1,2.882,0.254,23.88,109.4178,23.4,24.41,19.49,0,111.2,13.02,24.23,158.1
"2016-05-22 00:39:00",1654569,3.935,194.4,1.792,0.097,23.86,109.4252,23.42,24.42,21.06,0,111.2,13.02,24.25,156.4
"2016-05-22 00:39:30",1654570,3.908,188.9,1.857,0.114,23.93,109.4264,23.42,24.41,21.06,0,111.2,13.02,24.25,150.9
"2016-05-22 00:40:00",1654571,3.96,188.3,2.689,0.09,24,109.4285,23.43,24.41,19.92,0,111.2,13.02,24.26,150.3
"2016-05-22 00:40:30",1654572,3.967,191.5,1.337,0.075,23.73,109.4301,23.43,24.41,20.43,0,111.2,13.02,24.26,153.5
"2016-05-22 00:41:00",1654573,4.136,191,3.353,0.189,23.82,109.4325,23.44,24.41,21.39,0,111.2,13.02,24.27,153.0
"2016-05-22 00:41:30",1654574,3.736,189.3,2.615,0.172,23.6,109.4347,23.44,24.41,21.9,0,111.2,13.02,24.28,151.3
"2016-05-22 00:42:00",1654575,3.577,191.8,2.421,0.14,23.6,109.4362,23.45,24.42,23.03,0,111.2,13.02,24.28,153.8
"2016-05-22 00:42:30",1654576,3.382,195.9,2.306,0.192,23.51,109.4371,23.45,24.41,22.74,0,111.2,13.02,24.28,157.9
"2016-05-22 00:43:00",1654577,3.018,190.2,3.896,0.083,23.32,109.4368,23.45,24.44,23.32,0,111.2,13.02,24.28,152.2
"2016-05-22 00:43:30",1654578,3.143,190,2.338,0.154,23.37,109.4371,23.45,24.43,23.39,0,111.2,13.02,24.28,152.0
"2016-05-22 00:44:00",1654579,4.897,190.4,2.701,0.868,24,109.4371,23.45,24.44,19.87,0,111.2,13.02,24.28,152.4
"2016-05-22 00:44:30",1654580,5.467,191.3,3.966,0.219,24.08,109.4371,23.45,24.42,13.79,0,111.2,13.02,24.28,153.3
"2016-05-22 00:45:00",1654581,4.453,173.4,6.496,0.456,23.81,109.4371,23.45,24.42,15.36,0,111.2,13.02,24.28,135.4
"2016-05-22 00:45:30",1654582,3.688,173.1,5.898,0.188,23.49,109.4458,23.47,24.44,18.69,0,111.2,13.02,24.30,135.1
"2016-05-22 00:46:00",1654583,3.436,187.7,3.706,0.369,23.55,109.4644,23.52,24.46,20.21,0,111.2,13.02,24.35,149.7
"2016-05-22 00:46:30",1654584,4.527,197.1,6.883,0.436,23.92,109.4708,23.54,24.47,17.57,0,111.2,13.02,24.37,159.1
"2016-05-22 00:47:00",1654585,4.123,185.7,3.215,0.421,23.94,109.4708,23.54,24.49,15.23,0,111.2,13.02,24.37,147.7
"2016-05-22 00:47:30",1654586,4.306,194.6,3.964,0.175,23.99,109.4708,23.54,24.49,14.44,0,111.2,13.02,24.37,156.6
"2016-05-22 00:48:00",1654587,4.067,189.2,7.875,0.287,23.97,109.4723,23.54,24.5,14.45,0,111.2,13.01,24.37,151.2
"2016-05-22 00:48:30",1654588,4.597,181.9,1.517,0.215,23.9,109.488,23.58,24.52,15.11,0,111.2,13.01,24.41,143.9
"2016-05-22 00:49:00",1654589,5.209,187.4,3.959,0.298,24.08,109.504,23.62,24.53,14.75,0,111.2,13.01,24.45,149.4
"2016-05-22 00:49:30",1654590,4.432,186.5,3.503,0.487,24.09,109.5045,23.62,24.56,13.89,0,111.2,13.01,24.46,148.5
"2016-05-22 00:50:00",1654591,5.115,192.5,4.846,0.344,24.02,109.5062,23.63,24.57,13.77,0,111.2,13.01,24.46,154.5
"2016-05-22 00:50:30",1654592,4.724,194.8,3.477,0.447,23.98,109.5321,23.69,24.58,13.72,0,111.2,13.01,24.53,156.8
"2016-05-22 00:51:00",1654593,4.498,188.8,5.042,0.509,23.89,109.5382,23.71,24.62,14.36,0,111.2,13.01,24.54,150.8
"2016-05-22 00:51:30",1654594,4.246,182.2,5.381,0.746,23.8,109.5413,23.72,24.65,16.66,0,111.2,13.01,24.55,144.2
"2016-05-22 00:52:00",1654595,2.824,189.4,20.78,0.611,23.65,109.5672,23.78,24.68,17.69,0,111.2,13.02,24.62,151.4
"2016-05-22 00:52:30",1654596,2.486,209.8,9.08,0.259,23.36,109.5714,23.79,24.69,21.93,0,111.2,13.02,24.63,171.8
"2016-05-22 00:53:00",1654597,2.93,220,2.854,0.195,23.45,109.572,23.79,24.71,20.5,0,111.2,13.03,24.63,182.0
"2016-05-22 00:53:30",1654598,3.185,211,3.567,0.161,23.42,109.572,23.79,24.74,20.99,0,111.2,13.03,24.63,173.0
"2016-05-22 00:54:00",1654599,2.814,211.7,2.934,0.162,23.37,109.572,23.79,24.74,21.43,0,111.2,13.03,24.63,173.7
"2016-05-22 00:54:30",1654600,2.662,206.1,5.285,0.184,23.3,109.5722,23.8,24.76,22.33,0,111.2,13.03,24.63,168.1
"2016-05-22 00:55:00",1654601,3.245,205.8,4.768,0.542,23.55,109.5759,23.8,24.78,21.83,0,111.2,13.03,24.64,167.8
"2016-05-22 00:55:30",1654602,3.485,199.5,6.932,0.512,23.63,109.588,23.84,24.79,20.32,0,111.2,13.03,24.67,161.5
"2016-05-22 00:56:00",1654603,3.253,204.3,5.834,0.228,23.67,109.5945,23.85,24.8,17.54,0,111.2,13.03,24.69,166.3
"2016-05-22 00:56:30",1654604,3.847,210.4,4.074,0.264,23.73,109.5947,23.85,24.81,18.06,0,111.2,13.03,24.69,172.4
"2016-05-22 00:57:00",1654605,3.428,211,3.79,0.331,23.5,109.595,23.85,24.82,18.35,0,111.2,13.03,24.69,173.0
"2016-05-22 00:57:30",1654606,3.135,218.2,2.309,0.208,23.45,109.5985,23.86,24.82,19.3,0,111.2,13.03,24.70,180.2
"2016-05-22 00:58:00",1654607,3.257,215.8,3.824,0.136,23.54,109.6057,23.88,24.83,19.3,0,111.2,13.03,24.72,177.8
"2016-05-22 00:58:30",1654608,3.105,214.8,3.116,0.246,23.4,109.6112,23.9,24.84,18.76,0,111.2,13.03,24.73,176.8
"2016-05-22 00:59:00",1654609,3.318,213.8,4.314,0.123,23.29,109.6084,23.89,24.86,19.37,0,111.2,13.03,24.72,175.8
"2016-05-22 00:59:30",1654610,3.334,214.9,2.687,0.292,23.3,109.609,23.89,24.86,19.31,0,111.2,13.03,24.73,176.9
"2016-05-22 01:00:00",1654611,3.436,207.5,2.708,0.275,23.39,109.609,23.89,24.87,19.42,0,111.2,13.03,24.73,169.5
"2016-05-22 01:00:30",1654612,3.322,204.6,3.245,0.203,23.52,109.6078,23.89,24.87,18.65,0,111.2,13.03,24.72,166.6
"2016-05-22 01:01:00",1654613,3.144,208,1.469,0.091,23.64,109.6103,23.89,24.88,18.49,0,111.2,13.03,24.73,170.0
"2016-05-22 01:01:30",1654614,2.953,209,1.731,0.106,23.44,109.6109,23.89,24.9,18.41,0,111.2,13.03,24.73,171.0
"2016-05-22 01:02:00",1654615,3.661,203.8,6.779,0.458,23.8,109.6118,23.9,24.91,17.83,0,111.2,13.03,24.73,165.8
"2016-05-22 01:02:30",1654616,3.257,217.2,2.903,0.146,23.72,109.6166,23.91,24.91,16.77,0,111.2,13.03,24.74,179.2
"2016-05-22 01:03:00",1654617,3.423,212.6,3.57,0.166,23.76,109.6182,23.91,24.92,17.53,0,111.2,13.03,24.75,174.6
"2016-05-22 01:03:30",1654618,3.653,220.9,1.488,0.122,23.79,109.6304,23.94,24.94,17.47,0,111.2,13.03,24.78,182.9
"2016-05-22 01:04:00",1654619,3.484,222.8,0.977,0.165,23.61,109.6362,23.96,24.93,18,0,111.2,13.03,24.80,184.8
"2016-05-22 01:04:30",1654620,3.027,210.7,12.52,0.298,23.77,109.6387,23.97,24.94,17.25,0,111.2,13.02,24.80,172.7
"2016-05-22 01:05:00",1654621,3.878,205.8,3.977,0.255,23.78,109.6395,23.97,24.95,17.87,0,111.2,13.02,24.80,167.8
"2016-05-22 01:05:30",1654622,3.229,216.9,7.858,0.205,23.57,109.6476,23.99,24.97,19.86,0,111.2,13.02,24.82,178.9
"2016-05-22 01:06:00",1654623,3.213,207.4,6.599,0.268,23.84,109.6497,23.99,24.97,19.89,0,111.2,13.02,24.83,169.4
"2016-05-22 01:06:30",1654624,4.044,199.4,3.118,0.372,23.99,109.6486,23.99,24.96,17.54,0,111.2,13.02,24.83,161.4
"2016-05-22 01:07:00",1654625,3.813,193.9,6.408,0.327,23.78,109.6434,23.98,24.97,19.39,0,111.2,13.02,24.81,155.9
"2016-05-22 01:07:30",1654626,3.862,205.9,7.179,0.507,23.89,109.6403,23.97,24.97,19.35,0,111.2,13.02,24.81,167.9
"2016-05-22 01:08:00",1654627,4.809,194.1,4.166,0.487,24.21,109.6352,23.96,24.97,18.11,0,111.2,13.02,24.79,156.1
"2016-05-22 01:08:30",1654628,4.337,195,11.43,0.631,24.21,109.6377,23.96,24.96,14.53,0,111.2,13.02,24.80,157.0
"2016-05-22 01:09:00",1654629,4.31,187.2,13.97,0.591,23.9,109.6362,23.96,24.94,17.72,0,111.2,13.02,24.80,149.2
"2016-05-22 01:09:30",1654630,3.87,219.2,4.96,0.447,23.8,109.6305,23.95,24.92,19.95,0,111.2,13.02,24.78,181.2
"2016-05-22 01:10:00",1654631,3.063,199.9,12.97,0.446,23.65,109.6155,23.91,24.9,20.71,0,111.2,13.03,24.74,161.9
"2016-05-22 01:10:30",1654632,3.529,196.7,7.488,0.602,23.42,109.599,23.86,24.89,26.07,0,111.2,13.03,24.70,158.7
"2016-05-22 01:11:00",1654633,5.431,197.7,5.326,0.282,24.18,109.5735,23.8,24.85,19.28,0,111.2,13.03,24.63,159.7
"2016-05-22 01:11:30",1654634,5.11,204.8,7.614,0.429,24.21,109.5631,23.77,24.79,15.1,0,111.2,13.03,24.61,166.8
"2016-05-22 01:12:00",1654635,5.408,220.5,5.627,0.369,24.11,109.5507,23.74,24.76,17.06,0,111.2,13.03,24.58,182.5
"2016-05-22 01:12:30",1654636,4.545,221.7,4.255,0.417,24.07,109.542,23.72,24.74,15.61,0,111.2,13.03,24.55,183.7
"2016-05-22 01:13:00",1654637,5.55,208.8,6.769,0.647,24.18,109.5415,23.72,24.72,15.02,0,111.2,13.03,24.55,170.8
"2016-05-22 01:13:30",1654638,5.441,223,7.948,0.506,23.98,109.5415,23.72,24.7,15.27,0,111.2,13.03,24.55,185.0
"2016-05-22 01:14:00",1654639,4.994,222.4,12.96,0.878,23.66,109.5415,23.72,24.71,18.77,0,111.2,13.03,24.55,184.4
"2016-05-22 01:14:30",1654640,4.613,202.9,20.73,0.592,23.42,109.5381,23.71,24.72,23.8,0,111.2,13.03,24.54,164.9
"2016-05-22 01:15:00",1654641,3.578,232.2,9.79,0.829,23.9,109.5212,23.66,24.68,20.97,0,111.2,13.03,24.50,194.2
"2016-05-22 01:15:30",1654642,3.068,202.8,11.96,0.621,23.86,109.5083,23.63,24.69,18.64,0,111.2,13.03,24.47,164.8
"2016-05-22 01:16:00",1654643,2.705,222.6,19.71,0.415,23.72,109.5077,23.63,24.66,19.47,0,111.2,13.03,24.46,184.6
"2016-05-22 01:16:30",1654644,2.102,220.4,10.43,0.287,23.57,109.5077,23.63,24.65,20.57,0,111.2,13.03,24.46,182.4
"2016-05-22 01:17:00",1654645,2.155,212.8,10.31,0.36,23.63,109.5077,23.63,24.64,20.88,0,111.2,13.03,24.46,174.8
"2016-05-22 01:17:30",1654646,1.999,197.4,10.46,0.375,23.49,109.5069,23.63,24.64,22.49,0,111.2,13.03,24.46,159.4
"2016-05-22 01:18:00",1654647,1.484,183,8.59,0.196,23.37,109.5013,23.61,24.63,23.88,0,111.2,13.03,24.45,145.0
"2016-05-22 01:18:30",1654648,1.994,214.1,10.2,0.179,23.26,109.4844,23.57,24.62,24.22,0,111.2,13.03,24.40,176.1
"2016-05-22 01:19:00",1654649,1.394,236.5,9.32,0.239,23.23,109.474,23.54,24.61,25.19,0,111.2,13.03,24.38,198.5
"2016-05-22 01:19:30",1654650,1.409,218.7,15.76,0.578,23.2,109.474,23.54,24.6,25.5,0,111.2,13.04,24.38,180.7
"2016-05-22 01:20:00",1654651,1.784,231.9,11.66,0.313,23.1,109.474,23.54,24.59,24.89,0,111.2,13.04,24.38,193.9
"2016-05-22 01:20:30",1654652,1.51,247.8,13.1,0.243,23.23,109.4718,23.54,24.57,24.89,0,111.2,13.04,24.37,209.8
"2016-05-22 01:21:00",1654653,1.178,275.6,9.28,0.272,23.06,109.4549,23.49,24.56,25.62,0,111.2,13.04,24.33,237.6
"2016-05-22 01:21:30",1654654,1.581,248.1,19.43,0.34,23.1,109.4403,23.46,24.55,26.25,0,111.2,13.04,24.29,210.1
"2016-05-22 01:22:00",1654655,1.961,221,13.42,0.251,22.99,109.4403,23.46,24.52,26.67,0,111.2,13.03,24.29,183.0
"2016-05-22 01:22:30",1654656,1.456,232.7,5.416,0.256,22.97,109.4395,23.45,24.5,27.12,0,111.2,13.03,24.29,194.7
"2016-05-22 01:23:00",1654657,1.31,217.9,8.29,0.283,23.03,109.4319,23.44,24.49,27.82,0,111.2,13.03,24.27,179.9
"2016-05-22 01:23:30",1654658,1.57,221.3,6.659,0.217,23.38,109.4097,23.38,24.48,27.01,0,111.2,13.03,24.21,183.3
"2016-05-22 01:24:00",1654659,2.884,222.2,4.279,0.409,23.76,109.4066,23.37,24.46,22.92,0,111.2,13.03,24.20,184.2
"2016-05-22 01:24:30",1654660,3.075,206.6,6.056,0.661,23.59,109.4069,23.37,24.44,21.3,0,111.1,13.03,24.20,168.6
"2016-05-22 01:25:00",1654661,1.755,201.6,12.5,0.59,23.42,109.4072,23.37,24.42,24.3,0,111.2,13.03,24.21,163.6
"2016-05-22 01:25:30",1654662,3.878,207.8,8.03,0.386,23.78,109.396,23.34,24.41,22.91,0,111.1,13.03,24.18,169.8
"2016-05-22 01:26:00",1654663,4.005,213.2,6.773,0.303,23.88,109.3763,23.29,24.39,19.77,0,111.1,13.03,24.13,175.2
"2016-05-22 01:26:30",1654664,3.509,229.1,4.421,0.26,23.59,109.3747,23.29,24.38,21.86,0,111.1,13.03,24.12,191.1
"2016-05-22 01:27:00",1654665,3.457,218.2,8.27,0.394,23.63,109.3747,23.29,24.37,22.75,0,111.1,13.03,24.12,180.2
"2016-05-22 01:27:30",1654666,3.495,214.1,4.207,0.457,23.71,109.3744,23.29,24.34,21.83,0,111.1,13.03,24.12,176.1
"2016-05-22 01:28:00",1654667,2.659,209.8,8.91,0.53,23.54,109.3676,23.27,24.32,25.46,0,111.1,13.04,24.10,171.8
"2016-05-22 01:28:30",1654668,3.517,217.8,5.705,0.334,23.88,109.3513,23.23,24.31,22.51,0,111.1,13.04,24.06,179.8
"2016-05-22 01:29:00",1654669,4.032,210.6,3.88,0.669,24.25,109.3435,23.21,24.3,19.17,0,111.1,13.04,24.04,172.6
"2016-05-22 01:29:30",1654670,4.637,206.3,4.833,0.228,24.26,109.3422,23.2,24.25,14.79,0,111.1,13.04,24.04,168.3
"2016-05-22 01:30:00",1654671,3.983,196.2,5.751,0.253,24.12,109.345,23.21,24.25,15.77,0,111.1,13.04,24.04,158.2
"2016-05-22 01:30:30",1654672,4.277,208.3,5.035,0.276,24.17,109.3438,23.21,24.24,14.88,0,111.1,13.04,24.04,170.3
"2016-05-22 01:31:00",1654673,3.944,205.5,3.807,0.202,24.15,109.3419,23.2,24.22,14.22,0,111.1,13.04,24.04,167.5
"2016-05-22 01:31:30",1654674,4.863,201.1,2.475,0.388,24.14,109.3374,23.19,24.22,14.37,0,111.1,13.04,24.03,163.1
"2016-05-22 01:32:00",1654675,4.638,201.1,4.453,0.253,24.04,109.343,23.21,24.21,14.48,0,111.1,13.04,24.04,163.1
"2016-05-22 01:32:30",1654676,5.303,208.4,6.577,0.451,23.89,109.3471,23.22,24.2,15.13,0,111.1,13.04,24.05,170.4
"2016-05-22 01:33:00",1654677,4.393,201.1,5.53,0.382,23.9,109.3515,23.23,24.2,15.75,0,111.1,13.04,24.06,163.1
"2016-05-22 01:33:30",1654678,4.432,202.4,2.956,0.286,23.83,109.3561,23.24,24.21,15.62,0,111.1,13.04,24.07,164.4
"2016-05-22 01:34:00",1654679,5.045,195.2,4.56,0.44,24.03,109.3598,23.25,24.22,14.55,0,111.1,13.04,24.08,157.2
"2016-05-22 01:34:30",1654680,4.73,201.5,7.742,0.622,23.94,109.3607,23.25,24.21,13.9,0,111.1,13.04,24.09,163.5
"2016-05-22 01:35:00",1654681,5.864,201.4,6.636,0.453,24.02,109.3607,23.25,24.22,12.94,0,111.1,13.04,24.09,163.4
"2016-05-22 01:35:30",1654682,6.799,211.4,5.685,0.48,24.01,109.3664,23.27,24.24,12.95,0,111.1,13.04,24.10,173.4
"2016-05-22 01:36:00",1654683,6.667,203.3,4.956,0.589,24.12,109.3844,23.31,24.23,12.62,0,111.1,13.04,24.15,165.3
"2016-05-22 01:36:30",1654684,7.566,195.5,3.535,0.42,24.11,109.3942,23.34,24.25,12.66,0,111.1,13.04,24.17,157.5
"2016-05-22 01:37:00",1654685,7.396,202.7,7.42,0.461,24.08,109.3959,23.34,24.27,13.28,0,111.1,13.04,24.18,164.7
"2016-05-22 01:37:30",1654686,6.142,211.8,6.065,0.508,24.07,109.4041,23.36,24.3,13.48,0,111.1,13.04,24.20,173.8
"2016-05-22 01:38:00",1654687,6.517,205.5,4.767,0.378,24.06,109.4287,23.43,24.32,12.77,0,111.1,13.04,24.26,167.5
"2016-05-22 01:38:30",1654688,6.004,208.1,4.56,0.358,24.11,109.4346,23.44,24.34,13.37,0,111.1,13.04,24.28,170.1
"2016-05-22 01:39:00",1654689,5.29,203.2,3.003,0.448,23.98,109.4355,23.44,24.36,13.57,0,111.1,13.04,24.28,165.2
"2016-05-22 01:39:30",1654690,4.242,203.5,7.07,0.401,23.76,109.4394,23.45,24.38,18.09,0,111.1,13.03,24.29,165.5
"2016-05-22 01:40:00",1654691,5.046,205.8,5.881,0.505,23.92,109.4504,23.48,24.38,17.12,0,111.1,13.03,24.32,167.8
"2016-05-22 01:40:30",1654692,4.874,191.6,5.367,0.38,23.97,109.4619,23.51,24.42,18.08,0,111.1,13.03,24.35,153.6
"2016-05-22 01:41:00",1654693,5.803,182.5,9.43,0.444,24.23,109.47,23.53,24.41,14.18,0,111.1,13.03,24.37,144.5
"2016-05-22 01:41:30",1654694,4.474,212,4.234,0.989,23.8,109.474,23.54,24.42,16.83,0,111.1,13.03,24.38,174.0
"2016-05-22 01:42:00",1654695,4.365,204.1,7.934,1.317,23.86,109.4766,23.55,24.43,18.44,0,111.1,13.03,24.38,166.1
"2016-05-22 01:42:30",1654696,5.656,212.6,8.55,0.704,23.86,109.4758,23.55,24.45,16.78,0,111.1,13.03,24.38,174.6
"2016-05-22 01:43:00",1654697,5.219,216.4,6.874,0.564,23.82,109.471,23.54,24.46,18.16,0,111.1,13.03,24.37,178.4
"2016-05-22 01:43:30",1654698,5.611,217.8,3.068,0.711,23.9,109.4682,23.53,24.45,15.17,0,111.1,13.03,24.36,179.8
"2016-05-22 01:44:00",1654699,6.225,192.2,7.754,1.319,23.94,109.464,23.52,24.44,15.17,0,111.1,13.03,24.35,154.2
"2016-05-22 01:44:30",1654700,6.119,184.9,8.83,0.451,23.93,109.4531,23.49,24.42,15.07,0,111.1,13.04,24.32,146.9
"2016-05-22 01:45:00",1654701,6.573,208.4,4.022,0.444,23.89,109.4466,23.47,24.43,14.34,0,111.1,13.04,24.31,170.4
"2016-05-22 01:45:30",1654702,5.384,200.3,5.801,0.808,23.93,109.4455,23.47,24.43,14.53,0,111.1,13.04,24.30,162.3
"2016-05-22 01:46:00",1654703,6.341,201.9,7.627,0.532,24.12,109.4441,23.47,24.43,13.01,0,111.1,13.04,24.30,163.9
"2016-05-22 01:46:30",1654704,6.516,193.2,5.971,0.295,23.93,109.4438,23.47,24.43,13.73,0,111.1,13.04,24.30,155.2